Powrót do katalogu

COSMOS 374 DEB

AktywnyUNKNOWN
NORAD 4823·DEBRIS·🇷🇺 Russia

Wystrzelony Oct 23, 1970 z Baikonur Cosmodrome

Loading…

Następne Przeloty

TLE

Source: Space-Track
1 04823U 70089T   26221.13248623  .00000269  00000-0  29630-3 0  9993
2 04823  63.0180 125.2946 0943965  25.5604 338.9086 12.66332464543325

Śledź COSMOS 374 DEB w czasie rzeczywistym z AllMySat

Download on the App Store